Time,TemperatureF,DewpointF,PressureIn,WindDirection,WindDirectionDegrees,WindSpeedMPH,WindSpeedGustMPH,Humidity,HourlyPrecipIn,Conditions,Clouds,dailyrainin,SoftwareType,DateUTC
2013-03-23 00:02:00,14.0,11.0,-100.00,NNE,24,7.0,12.0,89,0.00,,,-99.99,,2013-03-23 06:02:00,
2013-03-23 00:12:00,14.0,11.0,-100.00,NNE,21,7.0,12.0,89,0.00,,,-99.99,,2013-03-23 06:12:00,
2013-03-23 00:22:00,14.0,11.0,-100.00,NE,37,7.0,11.0,89,0.00,,,-99.99,,2013-03-23 06:22:00,
2013-03-23 00:32:00,14.0,11.0,-100.00,NE,41,7.0,11.0,91,0.00,,,-99.99,,2013-03-23 06:32:00,
2013-03-23 00:42:00,13.0,11.0,-100.00,East,79,10.0,14.0,95,0.06,,,-99.99,,2013-03-23 06:42:00,
2013-03-23 00:52:00,12.0,11.0,-100.00,East,89,10.0,14.0,95,0.06,,,-99.99,,2013-03-23 06:52:00,
2013-03-23 01:02:00,12.0,11.0,-100.00,East,85,9.0,12.0,95,0.17,,,-99.99,,2013-03-23 07:02:00,
2013-03-23 01:12:00,12.0,11.0,-100.00,East,80,9.0,12.0,95,0.11,,,-99.99,,2013-03-23 07:12:00,
2013-03-23 01:22:00,12.0,11.0,-100.00,East,99,10.0,14.0,96,0.03,,,-99.99,,2013-03-23 07:22:00,
2013-03-23 01:32:00,12.0,11.0,-100.00,ESE,114,10.0,15.0,96,0.00,,,-99.99,,2013-03-23 07:32:00,
2013-03-23 01:42:00,12.0,11.0,-100.00,ESE,117,12.0,16.0,94,0.00,,,-99.99,,2013-03-23 07:42:00,
2013-03-23 01:52:00,12.0,10.0,-100.00,ESE,119,12.0,16.0,94,0.00,,,-99.99,,2013-03-23 07:52:00,
2013-03-23 02:02:00,12.0,10.0,-100.00,ESE,110,14.0,18.0,94,0.00,,,-99.99,,2013-03-23 08:02:00,
2013-03-23 02:12:00,12.0,10.0,-100.00,ESE,109,14.0,17.0,94,0.00,,,-99.99,,2013-03-23 08:12:00,
2013-03-23 02:22:00,12.0,10.0,-100.00,ESE,112,14.0,17.0,94,0.00,,,-99.99,,2013-03-23 08:22:00,
2013-03-23 02:32:00,12.0,10.0,-100.00,ESE,109,14.0,18.0,93,0.00,,,-99.99,,2013-03-23 08:32:00,
2013-03-23 02:42:00,11.0,10.0,-100.00,ESE,107,17.0,21.0,93,0.00,,,-99.99,,2013-03-23 08:42:00,
2013-03-23 02:52:00,11.0,10.0,-100.00,East,99,15.0,19.0,93,0.01,,,-99.99,,2013-03-23 08:52:00,
2013-03-23 03:02:00,11.0,10.0,-100.00,East,97,14.0,19.0,95,0.16,,,-99.99,,2013-03-23 09:02:00,
2013-03-23 03:12:00,11.0,10.0,-100.00,ESE,102,13.0,17.0,95,0.08,,,-99.99,,2013-03-23 09:12:00,
2013-03-23 03:22:00,11.0,10.0,-100.00,ESE,110,12.0,16.0,95,0.07,,,-99.99,,2013-03-23 09:22:00,
2013-03-23 03:33:00,11.0,10.0,-100.00,ESE,107,11.0,14.0,95,0.01,,,-99.99,,2013-03-23 09:33:00,
2013-03-23 03:42:00,11.0,11.0,-100.00,ESE,106,10.0,14.0,96,0.21,,,-99.99,,2013-03-23 09:42:00,
2013-03-23 03:53:00,12.0,11.0,-100.00,East,89,13.0,16.0,96,0.28,,,-99.99,,2013-03-23 09:53:00,
2013-03-23 04:03:00,12.0,11.0,-100.00,East,92,12.0,17.0,96,0.17,,,-99.99,,2013-03-23 10:03:00,
2013-03-23 04:12:00,11.0,10.0,-100.00,East,95,12.0,19.0,95,0.03,,,-99.99,,2013-03-23 10:12:00,
2013-03-23 04:23:00,11.0,10.0,-100.00,East,80,16.0,21.0,95,0.01,,,-99.99,,2013-03-23 10:23:00,
2013-03-23 04:33:00,11.0,10.0,-100.00,East,83,16.0,20.0,95,0.01,,,-99.99,,2013-03-23 10:33:00,
2013-03-23 04:42:00,11.0,9.0,-100.00,East,85,15.0,19.0,95,0.01,,,-99.99,,2013-03-23 10:42:00,
2013-03-23 04:52:00,11.0,10.0,-100.00,East,82,15.0,21.0,95,0.03,,,-99.99,,2013-03-23 10:52:00,
2013-03-23 05:03:00,11.0,10.0,-100.00,East,85,15.0,20.0,95,0.03,,,-99.99,,2013-03-23 11:03:00,
2013-03-23 05:12:00,11.0,10.0,-100.00,East,85,11.0,16.0,96,0.07,,,-99.99,,2013-03-23 11:12:00,
2013-03-23 05:22:00,11.0,10.0,-100.00,East,82,10.0,13.0,95,0.08,,,-99.99,,2013-03-23 11:22:00,
2013-03-23 05:32:00,10.0,9.0,-100.00,ENE,65,11.0,14.0,95,0.07,,,-99.99,,2013-03-23 11:32:00,
2013-03-23 05:42:00,10.0,9.0,-100.00,ENE,72,11.0,15.0,95,0.03,,,-99.99,,2013-03-23 11:42:00,
2013-03-23 05:51:00,10.0,9.0,-100.00,ENE,62,8.0,11.0,95,0.01,,,-99.99,,2013-03-23 11:51:00,
2013-03-23 06:02:00,10.0,8.0,-100.00,ENE,66,10.0,15.0,95,0.01,,,-99.99,,2013-03-23 12:02:00,
2013-03-23 06:12:00,9.0,8.0,-100.00,ENE,71,10.0,14.0,95,0.01,,,-99.99,,2013-03-23 12:12:00,
2013-03-23 06:22:00,9.0,8.0,-100.00,ENE,68,9.0,13.0,95,0.01,,,-99.99,,2013-03-23 12:22:00,
2013-03-23 06:33:00,9.0,8.0,-100.00,ENE,71,8.0,11.0,95,0.03,,,-99.99,,2013-03-23 12:33:00,
2013-03-23 06:42:00,9.0,8.0,-100.00,ENE,75,9.0,12.0,95,0.03,,,-99.99,,2013-03-23 12:42:00,
2013-03-23 06:52:00,9.0,8.0,-100.00,ENE,68,9.0,12.0,95,0.01,,,-99.99,,2013-03-23 12:52:00,
2013-03-23 07:02:00,9.0,8.0,-100.00,ENE,69,10.0,12.0,95,0.01,,,-99.99,,2013-03-23 13:02:00,
2013-03-23 07:12:00,9.0,8.0,-100.00,ENE,68,10.0,12.0,95,0.03,,,-99.99,,2013-03-23 13:12:00,
2013-03-23 07:22:00,9.0,8.0,-100.00,East,100,8.0,11.0,94,0.01,,,-99.99,,2013-03-23 13:22:00,
2013-03-23 07:42:00,8.0,7.0,-100.00,SE,127,6.0,9.0,94,0.03,,,-99.99,,2013-03-23 13:42:00,
2013-03-23 09:34:00,7.0,5.0,-100.00,SE,124,6.0,9.0,93,0.00,,,-99.99,,2013-03-23 15:34:00,
2013-03-23 09:40:00,7.0,5.0,-100.00,SE,143,7.0,9.0,93,0.00,,,-99.99,,2013-03-23 15:40:00,
2013-03-23 09:44:00,7.0,5.0,-100.00,SE,124,6.0,9.0,93,0.00,,,-99.99,,2013-03-23 15:44:00,
2013-03-23 09:53:00,7.0,5.0,-100.00,SE,140,7.0,9.0,93,0.00,,,-99.99,,2013-03-23 15:53:00,
2013-03-23 10:03:00,7.0,5.0,-100.00,SE,143,7.0,9.0,93,0.00,,,-99.99,,2013-03-23 16:03:00,
2013-03-23 10:13:00,7.0,5.0,-100.00,SE,143,7.0,9.0,93,0.00,,,-99.99,,2013-03-23 16:13:00,
2013-03-23 10:23:00,7.0,5.0,-100.00,SE,143,7.0,9.0,93,0.00,,,-99.99,,2013-03-23 16:23:00,
2013-03-23 10:32:00,7.0,5.0,-100.00,SE,143,7.0,9.0,93,0.00,,,-99.99,,2013-03-23 16:32:00,